Regional Weather Roundup
Issued by NWS Goodland, KS

Home | Current Version | Previous Version | Graphics & Text | Print | Product List | Glossary On
Versions: 1 2 3 4 5 6 7 8 9 10 11 12 13 14 15 16 17 18 19 20 21 22 23 24 25 26 27 28 29 30 31 32 33 34 35 36 37 38 39 40 41 42 43 44 45 46 47 48 49 50
000
ASUS43 KGLD 070859
RWRGLD

GOODLAND FORECAST AREA HOURLY WEATHER ROUNDUP
NATIONAL WEATHER SERVICE GOODLAND KS
200 AM MST SUN FEB 07 2016

...OFFICIAL OBSERVATIONS...

CITY           SKY/WX    TMP DP  RH WIND       PRES   REMARKS
GOODLAND KS    CLOUDY    29  22  75 NW13      30.13R WCI  19
HILL CITY KS   CLOUDY    37  28  70 NW10      30.08F
IMPERIAL NEB   CLOUDY    33  22  63 NW13      30.11S
MCCOOK NEB     CLOUDY    35  26  69 W14       30.09F
AKRON CO       CLOUDY    28  21  75 N14       30.12R WCI  17
BURLINGTON CO  CLOUDY    36  22  56 N12       30.14S
LIMON CO       CLOUDY    30  17  58 N8        30.14R
$$

...UNOFFICIAL OBSERVATIONS...

CITY           SKY/WX    TMP DP  RH WIND       PRES   REMARKS
COLBY KS       CLEAR     36  30  80 NW12G17   30.11R
GOVE KS          N/A     38  32  79 MISG        N/A
LENORA KS        N/A     36  32  85 MISG        N/A
NORTON KS      CLEAR     36  25  64 W13       30.07S
SHARON SPRINGS   N/A     34  25  68 NW9         N/A
TRENTON NEB      N/A     33  32  96 MISG        N/A
KIT CARSON CO    N/A     35  26  69 MISG        N/A
YUMA CO          N/A     30  23  74 NE8         N/A
$$




USA.gov is the U.S. government's official web portal to all federal, state and local government web resources and services.